Theta_e
352 351 350 349 349 347 348 348 346 344 345 345 345 344 343 343 346 350 351 349 347 347 348 347 349 352 354 354 354 354 353 352 352 353 352 352 352 352 353 352 352 352 351
355 353 352 351 349 347 346 346 346 346 345 344 346 350 349 347 347 348 346 347 347 344 345 345 345 342 347 352 355 345 345 345 347 347 347 349 349 351 352 352 352 352 351
357 357 352 350 348 351 351 350 349 349 349 349 351 351 349 349 347 346 346 345 345 345 346 348 340 344 345 344 344 346 344 344 343 342 342 343 344 345 348 350 352 352 351
358 357 352 351 350 351 349 348 348 348 349 349 350 349 347 347 347 346 344 343 342 343 345 346 338 335 336 335 334 336 341 340 341 342 342 343 343 344 342 345 348 350 350
358 357 353 352 355 350 350 351 351 351 349 347 346 345 345 346 346 344 344 343 346 345 343 342 336 335 331 331 333 333 334 339 339 340 341 340 341 341 342 343 343 346 350
359 359 356 355 354 348 349 351 352 350 342 341 339 337 341 342 342 342 343 343 343 344 344 343 339 332 333 329 331 331 333 333 336 337 337 338 339 338 340 341 342 343 345
358 357 352 353 352 349 350 342 340 339 341 341 337 339 340 342 344 340 339 340 342 341 336 335 334 331 333 332 332 331 329 330 331 333 336 336 333 333 335 338 339 340 343
356 355 354 350 349 345 343 341 339 338 339 343 337 333 327 330 335 332 329 330 331 332 330 332 335 336 337 334 335 333 331 329 329 331 333 331 328 328 330 331 332 334 338
353 352 349 348 346 343 342 345 343 342 338 342 343 335 327 323 328 330 334 332 335 332 332 332 333 334 335 333 332 332 332 326 328 329 327 325 324 325 326 327 327 331 334
349 350 349 347 346 344 342 345 345 345 344 337 339 341 341 338 327 321 326 328 331 330 331 329 329 330 331 330 332 332 331 327 327 326 324 324 323 323 324 324 324 327 330
348 347 348 346 347 346 346 347 347 345 341 340 337 336 337 335 334 327 320 322 325 325 326 326 327 329 330 329 328 328 324 323 325 323 323 322 322 322 322 323 323 325 329
345 346 346 347 347 345 345 344 343 343 343 341 338 336 331 325 323 322 319 321 320 322 323 325 327 327 327 326 328 328 326 324 323 324 322 320 320 320 320 322 321 324 325
341 344 344 344 342 343 344 345 342 341 338 335 335 330 328 326 326 323 320 318 317 319 321 323 324 324 325 325 325 327 325 322 320 319 320 319 318 317 318 320 319 320 320
337 339 342 342 340 338 339 339 334 333 334 331 332 331 327 325 324 323 321 318 315 316 319 327 323 323 323 324 325 324 323 321 320 318 317 316 316 316 317 317 315 317 315
331 332 333 334 334 333 332 332 329 330 330 330 329 329 326 325 324 323 322 320 316 311 312 319 317 325 322 323 323 324 322 320 320 317 316 315 314 315 316 316 317 316 314
328 328 327 328 328 328 328 329 327 328 326 325 324 325 325 323 323 322 321 320 319 316 312 316 316 320 322 320 321 323 320 319 317 316 316 315 314 314 314 314 316 315 313
323 322 322 323 323 324 325 325 325 324 323 324 324 323 322 324 321 321 321 320 318 317 312 315 317 319 319 320 320 320 320 319 318 317 317 315 314 313 312 312 313 312 312
319 318 318 318 318 318 320 319 318 319 318 318 319 320 319 319 322 322 317 319 316 318 314 313 315 314 316 321 320 318 316 317 316 315 315 313 311 310 310 310 310 310 309
315 315 315 315 314 315 315 316 315 316 317 318 319 318 319 319 318 316 316 314 315 316 315 311 310 312 313 314 315 317 317 317 317 317 314 312 311 310 310 310 309 308 307
311 312 313 313 313 313 314 314 314 314 315 316 317 317 317 316 316 316 315 316 316 314 312 310 309 309 310 315 314 311 312 315 315 316 316 312 311 310 310 309 309 310 309
312 312 312 313 314 313 311 309 309 311 313 314 316 316 317 316 313 312 311 312 312 311 310 309 309 309 310 311 312 313 312 312 314 313 311 312 313 314 314 311 313 314 309
312 312 313 312 312 312 301 301 303 307 310 312 313 315 316 314 314 310 309 308 309 309 309 309 309 310 315 314 313 313 309 306 303 311 311 310 315 313 315 315 308 306 305
312 312 312 310 309 307 300 299 300 306 309 312 313 313 313 314 313 314 311 309 308 306 306 307 306 306 307 311 309 307 306 305 304 307 307 304 313 310 315 314 309 305 304
309 309 309 309 308 306 300 298 299 308 310 312 313 313 312 314 314 307 306 305 305 306 307 307 306 306 307 308 307 307 306 306 306 307 308 302 312 311 315 317 308 305 303
305 306 307 308 306 306 298 296 298 304 306 308 310 311 310 308 303 299 301 301 302 304 306 304 302 301 300 300 302 305 304 302 301 303 308 306 310 309 312 317 311 306 302
303 302 304 306 303 305 297 295 295 297 298 303 307 309 304 304 297 296 298 300 298 301 302 302 303 303 302 304 301 302 303 301 302 301 308 307 307 309 309 310 309 309 310
Wind_Speed
8 8 7 7 6 7 7 7 8 6 9 10 10 9 9 8 7 5 3 9 7 8 7 3 4 5 6 5 3 1 1 4 7 8 11 13 15 17 19 20 20 23 21
7 8 7 8 7 7 7 7 8 8 9 9 8 8 8 7 6 6 6 4 8 7 7 3 3 5 3 4 2 5 6 7 8 7 9 11 13 16 18 19 20 22 22
8 8 7 6 6 5 7 6 7 8 8 6 7 6 6 7 8 8 7 7 5 10 9 9 1 6 5 4 1 2 7 6 8 9 12 12 13 13 15 17 19 21 22
10 9 7 8 7 7 7 7 7 7 7 6 6 6 7 7 9 10 10 9 7 7 8 8 1 3 4 4 2 1 7 7 9 11 12 13 15 15 16 17 17 19 21
11 10 9 8 7 7 7 7 8 7 6 5 6 6 8 10 11 10 10 8 10 8 6 2 7 6 4 2 3 3 5 5 7 9 12 14 14 16 17 16 18 18 21
11 10 9 8 8 8 7 7 8 2 3 5 6 7 9 10 9 8 10 9 7 6 8 9 6 8 7 3 3 4 8 10 10 12 14 13 12 16 16 17 18 19 19
9 9 7 8 8 8 5 2 3 6 8 6 6 10 11 9 10 7 6 6 6 10 7 6 6 5 5 7 6 5 7 12 14 13 12 9 15 18 19 18 19 20 21
8 9 10 7 7 4 6 5 4 5 7 9 5 7 8 3 8 5 5 4 4 6 6 6 5 8 7 8 9 4 12 9 9 10 9 11 15 18 20 21 22 21 21
7 8 6 5 5 7 6 7 8 9 10 7 8 7 7 7 6 6 6 6 4 6 8 9 8 10 9 10 11 12 4 5 8 11 12 13 16 18 19 20 22 21 22
7 8 7 5 7 7 8 9 8 8 8 9 6 8 8 9 7 8 8 6 8 9 6 8 9 11 12 10 13 13 12 5 8 13 13 15 18 20 22 22 22 22 23
6 7 7 7 9 8 9 9 7 7 7 9 8 7 6 7 9 9 12 12 10 10 10 8 10 10 13 12 11 10 5 6 9 12 15 18 21 21 22 22 22 22 22
5 6 6 6 7 7 6 7 4 7 8 5 6 6 8 8 9 10 12 13 14 14 12 11 11 10 11 11 12 10 9 7 11 12 15 18 20 22 23 22 21 21 23
4 4 4 4 4 3 2 1 4 3 5 6 5 7 7 8 9 10 12 13 13 13 13 13 12 13 11 11 12 10 11 9 14 17 14 14 18 22 23 22 22 21 21
4 1 2 3 3 3 2 2 5 6 4 6 7 8 8 9 9 10 11 13 15 14 14 15 11 12 13 12 14 18 16 14 11 11 11 13 17 21 22 22 22 20 21
5 5 4 3 1 0 2 3 5 5 5 7 7 8 9 9 9 10 11 11 14 17 15 13 12 14 14 14 15 17 18 21 16 13 13 15 19 19 19 19 20 17 19
5 5 4 3 3 4 5 5 5 6 7 8 8 10 10 10 11 10 12 12 12 15 17 12 11 12 13 14 18 19 19 18 21 21 18 17 17 17 18 18 19 18 19
6 6 5 5 5 6 6 7 8 10 11 11 12 12 13 13 11 12 11 12 12 12 16 14 12 11 15 16 16 16 17 15 14 14 8 12 12 14 17 18 19 19 18
6 6 6 6 7 8 8 9 11 12 13 14 14 14 15 11 14 13 11 12 12 14 14 20 15 14 15 16 13 13 14 14 13 13 11 10 14 17 18 18 18 18 18
9 9 8 8 9 9 10 10 11 13 13 13 13 14 15 15 13 11 13 11 13 14 14 14 14 14 16 15 13 12 12 14 12 15 18 22 21 21 19 18 18 19 19
7 8 8 8 8 9 10 11 10 12 13 13 14 14 15 15 16 15 14 14 15 12 11 11 13 13 13 14 11 12 12 11 10 10 8 11 14 18 18 19 18 20 17
7 8 8 8 9 9 6 10 13 14 14 15 14 15 15 14 15 16 14 17 17 14 13 13 13 13 14 13 13 11 10 10 12 8 11 9 11 10 11 15 18 15 8
6 7 7 9 11 8 10 8 12 14 15 15 14 15 15 16 16 15 18 23 21 18 19 16 16 17 19 15 13 12 9 8 8 5 8 8 11 10 11 11 8 6 12
7 8 9 10 9 10 7 8 11 13 14 14 15 15 15 13 14 16 17 14 16 20 25 20 19 18 19 18 14 13 9 8 10 7 6 9 12 11 11 6 5 6 12
8 8 8 9 9 7 7 8 13 14 13 15 15 15 15 17 15 13 15 17 18 17 17 13 16 17 17 17 16 12 10 8 8 8 7 8 11 9 11 4 3 6 13
8 8 7 9 9 9 9 12 15 13 13 14 14 15 14 13 14 15 16 17 17 16 14 19 23 26 27 28 24 9 8 8 6 6 8 8 10 8 8 3 2 6 11
9 8 9 9 8 10 10 13 13 9 11 11 13 13 10 8 14 19 15 13 14 14 15 17 15 15 15 15 21 15 11 9 6 3 7 6 9 7 3 2 3 4 2
Wind_Direction
197 203 210 224 215 223 213 236 241 232 235 242 251 251 260 262 271 269 293 168 240 260 269 309 324 327 330 326 334 59 18 318 295 277 277 276 271 268 262 260 256 259 258
197 207 210 218 220 232 241 237 232 243 237 253 244 258 255 260 246 272 271 247 190 237 264 259 317 315 342 352 43 348 5 12 340 330 312 292 286 278 269 261 258 256 254
203 237 219 225 224 226 241 241 250 235 252 241 257 239 253 244 264 266 270 289 272 211 237 249 101 333 310 311 12 342 37 4 339 346 319 310 298 288 280 276 268 263 262
222 208 221 221 220 223 218 231 234 237 248 237 257 263 255 265 274 275 267 263 260 256 209 232 326 225 273 289 300 316 23 19 336 335 317 309 308 305 302 291 283 266 258
217 232 230 225 215 227 222 220 228 244 247 271 296 291 270 263 258 258 271 252 236 249 253 233 221 207 212 264 302 358 360 352 338 314 302 307 306 308 306 302 297 286 266
220 222 238 236 215 230 222 227 239 286 332 286 284 285 285 274 263 238 247 255 254 236 234 247 260 207 169 208 336 349 346 333 309 296 299 299 318 319 318 316 305 294 286
221 219 241 216 222 234 223 192 261 269 264 243 246 263 242 229 233 252 239 240 210 229 261 269 260 267 250 185 225 235 305 296 292 297 304 337 333 328 324 325 323 322 309
214 223 233 228 210 205 211 205 197 257 261 249 272 286 267 243 203 217 260 244 249 292 270 253 290 282 287 291 303 288 273 283 297 300 316 331 324 320 319 320 322 320 319
213 219 229 235 201 228 230 237 231 237 255 248 231 283 288 282 350 269 204 249 311 298 318 293 278 280 287 289 296 290 89 338 296 300 309 312 312 311 311 312 314 315 316
212 218 215 207 222 219 229 250 240 237 232 261 233 235 274 301 290 290 282 259 248 268 277 287 294 294 291 288 297 289 260 245 273 292 293 299 304 305 306 308 311 311 312
219 230 222 217 228 226 225 247 236 235 251 256 280 276 255 268 252 273 292 294 292 290 288 297 299 300 278 285 292 294 103 248 270 280 287 295 299 301 301 301 305 304 305
201 217 214 221 223 234 233 234 247 248 253 288 296 294 282 292 299 296 290 287 293 294 295 295 285 281 285 287 284 276 256 265 257 259 279 287 295 299 297 295 301 302 306
203 133 232 222 213 228 239 241 212 237 242 270 272 289 291 282 285 285 285 284 286 289 289 289 293 288 287 285 287 282 293 283 268 267 264 278 291 295 292 293 297 297 304
59 34 130 127 128 150 171 201 224 265 281 270 278 283 290 285 285 282 284 293 289 286 281 277 270 291 293 288 307 288 275 261 271 263 264 280 288 287 283 289 291 292 303
86 44 46 47 61 271 278 296 264 273 282 273 285 272 274 281 284 283 283 283 287 290 284 290 299 297 291 285 295 296 291 290 292 291 269 270 277 277 279 282 281 285 299
42 31 12 344 329 315 310 310 284 275 287 286 289 288 281 282 285 281 280 278 277 284 290 290 276 274 287 288 286 283 286 290 277 264 258 251 258 268 273 278 275 285 291
24 11 357 341 322 311 314 309 300 290 282 286 282 277 279 283 281 283 285 286 284 288 284 281 283 285 277 270 278 286 285 290 289 271 269 260 260 264 272 278 273 279 279
359 340 335 325 314 313 315 308 300 298 291 288 288 288 285 285 282 276 278 279 279 283 284 287 288 291 275 273 274 280 280 283 288 292 288 260 258 261 266 269 268 272 275
342 331 331 322 322 319 307 297 290 289 289 288 290 289 289 288 283 279 279 281 280 277 280 292 294 291 293 291 288 274 263 273 276 266 247 247 251 256 257 254 254 266 270
319 316 317 313 313 310 307 296 312 306 299 295 294 288 282 281 280 282 274 270 275 278 274 271 275 271 273 282 281 279 277 268 277 285 304 281 274 269 249 252 254 255 263
317 313 315 319 320 317 336 343 321 307 300 296 293 287 282 289 307 291 284 286 289 285 283 281 278 278 272 271 265 271 272 278 276 293 289 282 274 287 286 245 247 226 311
321 318 329 327 324 315 53 2 323 308 301 296 296 297 295 289 274 259 253 251 258 273 274 274 272 272 276 274 266 271 265 262 274 257 277 285 295 288 291 276 61 353 302
336 333 335 343 341 333 13 337 326 310 302 294 295 296 297 299 304 294 293 289 269 258 253 265 270 269 275 277 283 283 262 249 255 264 279 274 282 291 283 259 108 308 307
341 339 338 325 328 333 353 345 338 302 311 301 304 303 297 298 311 327 312 296 283 273 270 263 258 263 265 270 264 261 260 251 250 252 255 267 272 283 294 299 64 313 310
338 332 324 319 334 334 37 11 343 320 310 306 308 312 316 311 312 315 303 293 289 285 283 270 263 264 263 262 257 261 233 223 235 234 231 242 273 286 267 305 359 309 343
351 336 331 341 357 340 27 354 334 325 315 319 319 312 293 308 311 308 306 306 303 306 306 294 286 275 266 261 250 238 239 230 215 211 223 234 263 273 323 42 15 337 340